Flag for South Africa Weather past 2 weeks in Pretoria, South Africa

Now
77 °F

Pleasantly warm.


Feels Like: 78 °F
Forecast: 57 / 74 °F
Wind: 6 mph from North

Location: Waterkloof Lmb

Current Time: Apr 21, 2015 at 3:51:10 PM

Latest Report: Apr 21, 2015 at 3:00 PM


Visibility: N/A

Pressure: 30.27 "Hg

Humidity: 28%

Dew point: 41 °F

Location of PretoriaLocation

Historic Weather in Pretoria — Graph

°F

Pretoria temperature yesterday

Maximum temperature yesterday: 72 °F (at 1:00 PM)
Minimum temperature yesterday: 54 °F (at 12:00 AM)
Average temperature yesterday: 62 °F

Past Weeks' High & Low Weather Summary

 TemperatureHumidityPressure
High79 °F (Apr 6, 2:00 PM)100% (Apr 9, 6:00 AM)30.42 "Hg (Apr 9, 6:00 AM)
Low48 °F (Apr 10, 3:00 AM)17% (Apr 16, 4:00 PM)30.07 "Hg (Apr 14, 7:00 PM)
Average62 °F67%30.26 "Hg
* Reported Apr 6 2:00 PM — Apr 21 2:00 PM, Pretoria, Weather by CustomWeather, © 2015

Note: Actual official high and low records may vary slightly from our data, if they occured in-between our weather recording intervals... More about our weather records

Advertising

Pretoria weather history for previous 24 hours

 ConditionsComfort  
Time TempWeatherWind HumidityBarometerVisibility
2:00 PM
Tue, Apr 21
75 °FMild.7 mph31%30.30 "HgN/A
1:00 PM73 °FMild.6 mph33%30.30 "HgN/A
12:00 PM75 °FMild.6 mph39%30.33 "HgN/A
11:00 AM72 °FSunny.6 mphN/A30.42 "Hg10 mi
10:00 AM72 °FMild.5 mph44%30.33 "HgN/A
9:00 AM68 °FPassing clouds.6 mphN/A30.42 "HgN/A
8:00 AM61 °FCool.No wind68%30.33 "HgN/A
7:00 AM55 °FCool.2 mph77%30.30 "HgN/A
6:00 AM48 °FCool.2 mph87%30.27 "HgN/A
5:00 AM48 °FCool.2 mph87%30.27 "HgN/A
4:00 AM50 °FCool.3 mph88%30.24 "HgN/A
3:00 AM50 °FCool.2 mph88%30.27 "HgN/A
2:00 AM52 °FCool.1 mph82%30.27 "HgN/A
1:00 AM54 °FCool.1 mph77%30.27 "HgN/A
12:00 AM57 °FCool.2 mph67%30.24 "HgN/A
11:00 PM
Mon, Apr 20
55 °FCool.2 mph72%30.27 "HgN/A
10:00 PM57 °FCool.2 mph72%30.27 "HgN/A
9:00 PM59 °FCool.1 mph63%30.27 "HgN/A
8:00 PM61 °FRefreshingly cool.2 mph59%30.24 "HgN/A
7:00 PM61 °FRefreshingly cool.5 mph59%30.24 "HgN/A
6:00 PM64 °FMild.5 mph52%30.21 "HgN/A
5:00 PM70 °FMild.9 mph40%30.21 "HgN/A
4:00 PM72 °FMild.10 mph38%30.21 "HgN/A
3:00 PM72 °FMild.13 mph38%30.21 "HgN/A
Weather by CustomWeather, © 2015

See weather overviewHow to use our weather pages